Regional Weather Roundup
Issued by NWS

Home | Current Version | Previous Version | Text Only | Print | Product List | Glossary Off
Versions: 1 2 3 4 5 6 7 8 9 10 11 12 13 14 15 16 17 18 19 20 21 22 23 24 25 26 27 28 29

000
ASUS45 KPSR 292210
RWRAZ

ARIZONA HOURLY REGIONAL WEATHER ROUNDUP
NATIONAL WEATHER SERVICE PHOENIX AZ
300 PM MST FRI APR 29 2016

NOTE: FAIR INDICATES FEW OR NO CLOUDS BELOW 12,000 FEET WITH NO
SIGNIFICANT WEATHER AND/OR OBSTRUCTIONS TO VISIBILITY.

AZZ001>003-036-292300-
NORTHWEST ARIZONA

CITY           SKY/WX    TMP DP  RH WIND       PRES   REMARKS
BULLHEAD CITY  MOSUNNY   79  37  22 SW3       29.82F
KINGMAN        PTSUNNY   69  34  27 W12       29.88F
$$

AZZ004>008-015-016-018-292300-
NORTH CENTRAL ARIZONA

CITY           SKY/WX    TMP DP  RH WIND       PRES   REMARKS
GRAND CANYON   PTSUNNY   52  30  43 W12G21    29.91F
WILLIAMS       MOSUNNY   50  34  53 SW10G20   30.01S
PRESCOTT       PTSUNNY   60  35  39 W10       29.90F
FLAGSTAFF      CLOUDY    48  31  51 NW9G20    29.93F
PAYSON         CLOUDY    59  32  36 VRB7G18   29.93F
PAGE           MOSUNNY   61  34  36 SW12G20   29.80F
$$

AZZ009>014-017-292300-
NORTHEAST ARIZONA

CITY           SKY/WX    TMP DP  RH WIND       PRES   REMARKS
WINSLOW        PTSUNNY   63  35  35 NW16G26   29.86S
SAINT JOHNS    PTSUNNY   57  33  40 W23G32    29.85F
WINDOW ROCK    LGT RAIN  51  28  41 W24G41    29.86F
SHOW LOW       PTSUNNY   55  28  35 W22G35    29.91F
$$

AZZ023-292300-
GREATER PHOENIX AREA

CITY           SKY/WX    TMP DP  RH WIND       PRES   REMARKS
PHOENIX        MOSUNNY   80  36  20 W13       29.80F
BUCKEYE        MOSUNNY   81  32  17 W16G22    29.81F
GLENDALE       MOSUNNY   79  37  22 S17       29.82F
LUKE AFB       MOSUNNY   80  39  23 SW16G23   29.79F
DEER VALLEY    PTSUNNY   77  37  23 SW14G20   29.81F
SCOTTSDALE     PTSUNNY   76  35  22 SW12      29.83F
MESA-FALCON    PTSUNNY  N/A N/A N/A SW12G17   29.80F
MESA-GATEWAY   PTSUNNY   75  27  16 SW10G16   29.83F
CHANDLER       PTSUNNY   77  36  22 MISG      29.82F
$$

AZZ027-028-292300-
SOUTHWEST MARICOPA COUNTY AND PINAL COUNTY

CITY           SKY/WX    TMP DP  RH WIND       PRES   REMARKS
CASA GRANDE    SUNNY     79  36  21 W14G25    29.85F
GILA BEND      PTSUNNY   81  33  17 SW12G23   29.81F
$$

AZZ503-504-507>509-292300-
SOUTHEAST ARIZONA

CITY           SKY/WX    TMP DP  RH WIND       PRES   REMARKS
TUCSON         CLOUDY    73  31  21 W14G23    29.90F
DAVIS-MONTHAN  CLOUDY    72  33  23 W9G20     29.88F
RYAN FIELD     PTSUNNY   73  32  21 SW9G18    29.90F
NOGALES        CLOUDY    73  28  18 W9        29.92F
SIERRA VISTA   PTSUNNY   70  25  18 W15G29    29.95F
DOUGLAS        PTSUNNY   70  25  18 VRB3G26   29.90F
SAFFORD        FAIR      71  32  23 NW21G30   29.85F
$$

AZZ020-021-025-026-031-292300-
SOUTHWEST ARIZONA

CITY           SKY/WX    TMP DP  RH WIND       PRES   REMARKS
YUMA           MOSUNNY   83  38  20 W10       29.83F
$$

CAZ031-033-041-043-047-048-061-292300-
SOUTHERN CALIFORNIA

CITY           SKY/WX    TMP DP  RH WIND       PRES   REMARKS
DOWNTOWN L.A.  SUNNY     67  51  56 W6        29.97F
L.A. AIRPORT   SUNNY     65  51  60 SW15      29.99F
SAN DIEGO      PTSUNNY   66  50  56 NW9       30.01F
BURBANK        SUNNY     68  49  50 SW9       29.96F
ONTARIO        MOSUNNY   70  47  43 SW8G24    29.96F
RIVERSIDE      SUNNY     73  47  39 W7        29.94F
PALM SPRINGS   SUNNY     84  40  21 NW12G23   29.82F
EL CENTRO NAS  MOSUNNY   85  34  16 SE7       29.81F
IMPERIAL       SUNNY     87  34  15 VRB3      29.80F
BLYTHE         SUNNY     85  34  16 NW10      29.79F
NEEDLES        MOSUNNY   81  39  22 SE12      29.79F
$$

NVZ020-UTZ003-292300-
SOUTHERN NEVADA-UTAH

CITY           SKY/WX    TMP DP  RH WIND       PRES   REMARKS
LAS VEGAS      PTSUNNY   74  36  25 E6        29.77F
SALT LAKE CITY PTSUNNY   57  36  45 N6        29.83F
$$

NMZ009-TXZ055-292300-
NEW MEXICO-WEST TEXAS

CITY           SKY/WX    TMP DP  RH WIND       PRES   REMARKS
ALBUQUERQUE    PTSUNNY   56  28  34 NW8       29.79F
EL PASO        MOSUNNY   73  18  12 W21G35    29.81F
$$


........................KEY........................
SKY/WX - SKY CONDITION/WEATHER
TMP    - TEMPERATURE IN FAHRENHEIT
DP     - DEW POINT IN FAHRENHEIT
RH     - RELATIVE HUMIDITY IN PERCENT
WIND   - DIRECTION AND SPEED IN MILES PER HOUR (MPH)
VRB    - VARIABLE WIND DIRECTION
PRES   - MEAN SEA LEVEL PRESSURE IN INCHES OF MERCURY
         F - FALLING PRESSURE   R - RISING PRESSURE
         S - STEADY PRESSURE
VSB    - VISIBILITY IN MILES
HX     - HEAT INDEX IN FAHRENHEIT
WCI    - WIND CHILL INDEX IN FAHRENHEIT
TC     - TEMPERATURE IN CELSIUS WHICH IS ALSO KNOWN AS
         TEMPERATURE IN CENTIGRADE
AFB    - AIR FORCE BASE
         LUKE AFB IS LUKE AIR FORCE BASE
         DAVIS-MONTHAN IS DAVIS-MONTHAN AIR FORCE BASE
NAS    - NAVAL AIR STATION
         EL CENTRO NAS IS EL CENTRO NAVAL AIR STATION
N/A    - NOT AVAILABLE





USA.gov is the U.S. government's official web portal to all federal, state and local government web resources and services.